GEFSMW_con_probscp_348.txt.gz
Probability
0 0 1 0 1 2 2 1 0 0 0 0 0 0 0 0 0 0 0 0 0 1 2 3 2 1 0 0 0 0 0 0 0 0 0 1 3 3 2 2 2 2 2
0 0 1 0 1 2 2 1 0 0 0 0 0 1 1 0 0 0 0 0 0 1 2 3 3 2 1 0 0 0 0 0 0 1 1 2 3 3 1 1 1 1 1
0 0 0 0 0 1 2 2 1 0 0 1 1 2 2 1 0 0 0 0 1 1 3 3 3 3 1 0 0 0 0 0 1 2 3 3 3 2 1 0 0 0 0
1 0 0 0 0 0 1 2 1 1 1 2 3 3 3 2 1 0 0 0 1 2 3 3 3 3 2 0 0 0 1 2 3 3 3 3 2 2 1 0 0 0 0
2 1 0 0 0 0 1 2 3 2 3 3 3 3 3 3 2 1 1 1 2 3 3 3 3 3 1 0 0 1 2 2 3 3 3 2 1 1 0 0 0 0 0
3 2 1 1 1 1 1 3 3 3 4 4 4 3 3 3 3 3 2 2 3 3 3 3 3 2 1 0 1 3 2 1 1 2 3 2 1 1 1 0 0 0 0
2 2 3 3 3 2 3 4 4 3 3 4 3 3 3 3 3 3 3 3 3 3 3 2 2 1 0 1 2 2 1 0 0 1 3 3 3 2 2 1 1 0 0
1 1 3 4 4 3 4 5 5 4 3 3 3 3 3 3 3 3 3 3 3 3 2 1 1 0 1 2 2 1 0 0 1 2 3 3 3 3 3 3 2 1 0
0 0 1 3 3 3 4 6 6 5 4 3 3 3 3 3 4 4 3 3 3 3 2 1 0 1 2 2 1 1 1 2 3 4 4 4 3 3 3 3 3 2 1
0 0 1 2 3 4 5 6 5 5 5 4 4 4 5 5 6 6 4 3 3 3 3 1 1 2 2 1 1 2 2 2 3 3 4 3 3 3 3 3 3 3 3
0 0 1 2 4 5 5 5 4 5 6 6 5 7 8 8 9 8 5 4 3 3 3 3 3 3 2 1 2 2 2 1 1 2 3 3 4 4 4 4 3 3 3
1 0 0 2 5 5 4 4 5 7 9 8 7 9 10 9 9 7 5 4 4 4 4 5 6 5 3 1 2 2 2 2 2 2 3 5 6 6 6 6 5 4 4
2 1 1 4 6 5 3 4 6 8 9 8 8 10 10 9 8 7 5 4 5 5 6 7 7 6 4 3 4 4 4 5 5 5 6 7 9 10 10 9 8 7 7
4 3 3 5 6 5 3 4 6 8 8 8 9 9 9 9 9 8 6 5 6 7 9 9 9 8 7 6 6 6 7 7 8 8 9 9 11 11 11 12 11 9 10
6 6 5 5 5 4 3 4 6 7 9 10 11 10 8 8 8 8 7 6 6 8 9 9 10 9 8 7 6 6 7 8 8 9 9 9 9 9 10 10 10 9 10
8 8 8 7 6 4 3 4 5 6 8 10 11 10 7 6 7 8 7 7 7 8 8 8 7 7 6 6 5 5 6 6 6 6 6 6 6 6 7 7 7 8 9
9 9 9 9 8 7 6 5 5 5 6 7 8 7 5 4 5 6 6 7 7 8 8 7 6 5 4 4 3 3 4 4 5 5 5 5 5 5 5 6 6 7 7
9 8 8 9 8 8 6 5 5 5 5 5 4 4 3 3 3 3 5 6 6 6 5 6 7 6 5 4 3 3 4 4 5 5 5 6 6 6 5 5 5 6 7
9 8 7 7 7 6 5 4 4 4 4 4 3 3 3 2 2 3 3 4 4 3 3 5 7 8 7 5 3 3 4 4 4 4 5 6 8 6 4 3 5 6 6
8 7 6 6 5 4 3 3 3 3 3 3 3 3 2 1 1 3 3 2 2 3 3 4 5 7 8 6 4 3 4 5 4 4 5 6 7 5 2 2 4 5 5
6 6 5 4 4 3 3 3 3 3 3 3 3 2 1 0 1 2 2 1 1 3 3 3 4 6 7 6 4 3 5 7 6 6 6 6 5 2 1 1 3 3 3
2 3 3 3 2 3 3 3 3 3 3 3 3 2 1 0 0 2 3 3 2 3 3 3 4 5 6 6 4 2 3 5 6 7 6 4 3 1 0 0 1 1 1
0 1 1 1 1 1 2 3 3 3 3 3 3 3 2 1 1 1 3 4 3 3 3 4 4 5 6 5 4 3 2 2 3 6 6 3 1 0 0 1 1 1 2
0 0 0 0 0 0 1 2 2 3 3 3 3 3 3 2 1 1 2 3 4 4 4 4 5 5 5 5 4 4 3 2 3 5 6 3 1 1 1 2 2 3 3
0 0 0 0 0 0 0 1 1 1 2 3 3 3 3 2 1 0 0 1 3 3 3 3 3 3 3 3 3 4 4 4 5 6 7 5 3 2 2 2 3 3 3
0 0 0 0 0 0 0 0 0 0 1 3 3 3 3 2 1 0 0 0 1 2 1 1 1 1 1 1 1 2 4 4 5 7 8 8 5 2 1 2 3 3 3

GEFSMW_con_probscp_354.txt.gz
Probability
1 0 0 0 0 1 3 6 7 9 10 11 10 8 6 5 5 6 7 7 6 6 6 5 4 3 4 4 3 1 0 1 1 1 0 0 2 3 4 4 4 4 4
2 1 0 0 0 1 4 6 8 10 11 12 11 10 9 7 6 6 8 8 7 7 7 5 4 4 4 4 3 2 1 0 1 1 0 0 2 4 4 4 5 5 5
4 3 3 3 3 3 4 7 10 11 12 13 12 13 13 11 9 9 9 9 9 8 7 6 5 5 4 4 4 4 2 1 1 2 1 1 3 5 6 6 6 6 5
5 6 6 7 7 5 4 7 11 13 14 14 14 15 17 15 12 11 10 8 8 6 5 5 6 6 7 6 6 6 6 4 3 3 3 4 6 7 8 8 7 6 5
5 7 8 8 8 5 5 7 11 14 16 16 17 18 17 15 13 11 9 7 5 4 4 5 6 8 9 9 9 9 9 8 6 6 7 9 10 10 9 8 7 6 6
4 6 7 7 6 5 6 8 11 12 14 15 17 18 17 16 14 12 10 8 6 5 5 6 9 10 10 10 10 10 11 10 9 10 11 13 13 11 9 8 8 7 6
5 5 6 6 6 5 6 7 9 10 11 12 15 16 17 17 15 14 13 11 9 8 9 9 10 9 9 9 9 11 11 10 10 12 14 15 14 11 9 8 7 6 6
6 6 6 6 6 5 4 5 8 10 12 13 15 17 19 18 17 18 17 15 11 10 11 11 9 8 8 8 9 10 10 10 10 12 14 15 14 11 9 8 7 5 4
7 7 8 7 6 5 5 5 7 10 13 14 16 20 22 21 22 24 23 19 17 14 14 14 10 8 8 10 10 9 8 8 9 10 12 14 13 11 11 10 9 7 5
7 8 8 7 6 7 7 7 7 9 13 16 18 21 24 25 27 29 29 27 25 23 21 19 13 10 10 12 11 9 7 7 7 9 10 11 12 12 13 13 12 10 8
7 7 7 6 7 8 9 9 8 9 13 18 21 23 24 26 27 30 32 32 31 31 29 24 17 13 12 13 12 10 7 6 6 7 8 10 11 13 14 14 14 13 13
9 9 8 7 8 9 11 11 11 11 14 21 26 26 25 25 26 27 29 32 33 33 31 26 20 15 13 12 12 10 7 5 5 5 6 7 9 12 14 14 15 16 16
12 12 12 12 12 13 14 14 14 14 17 24 29 28 26 25 25 25 26 28 31 30 29 27 22 16 13 12 11 10 7 6 5 4 4 5 7 11 13 14 15 16 17
14 14 14 14 15 16 18 18 17 17 21 26 27 26 25 24 23 23 23 24 24 24 26 26 21 16 13 11 10 9 8 7 7 7 7 7 9 11 13 14 14 15 16
12 12 12 13 14 15 18 19 20 20 21 23 23 23 23 22 21 20 19 17 16 17 21 23 20 15 11 8 6 5 6 7 8 8 9 10 10 11 12 11 11 12 14
8 8 9 11 13 14 17 19 21 21 21 20 19 19 20 20 20 18 15 13 11 11 14 17 16 13 8 5 2 2 3 4 5 6 7 8 8 8 9 8 7 8 10
7 8 10 12 12 13 16 18 20 21 20 19 17 17 17 18 18 18 15 13 10 10 11 13 13 11 7 3 0 0 1 3 4 4 5 5 5 7 8 8 6 7 8
9 11 13 13 12 13 15 16 17 18 18 16 14 13 14 14 15 16 14 13 12 11 10 11 11 10 7 3 0 0 1 3 4 5 5 6 6 8 10 10 9 10 11
10 13 15 14 14 14 14 13 13 14 14 12 9 9 8 9 12 14 13 13 12 10 9 8 8 8 7 4 1 1 3 4 5 6 6 6 6 7 9 9 10 12 13
12 14 15 16 15 15 14 13 12 12 10 8 6 5 5 5 8 11 13 13 11 10 8 6 5 5 5 4 2 2 5 7 7 7 7 6 5 5 5 7 9 10 11
13 14 15 16 16 16 16 16 14 11 8 5 4 4 4 3 5 7 9 11 10 8 8 8 7 6 5 5 3 2 5 8 9 8 8 8 7 3 2 4 6 7 6
14 14 15 15 14 14 16 17 15 11 8 5 4 4 4 3 3 4 5 7 7 6 7 9 10 10 8 7 4 2 2 5 7 8 8 9 7 3 0 1 3 3 2
14 14 13 13 11 11 13 14 13 10 8 7 6 5 4 3 3 3 3 4 5 4 4 7 10 11 10 8 5 2 1 2 4 7 7 6 5 2 1 2 2 3 3
13 12 11 10 10 9 8 9 8 8 7 7 7 6 5 4 4 4 4 4 4 4 3 5 8 9 8 7 4 2 1 1 2 4 6 6 4 4 5 6 6 6 8
12 11 11 10 9 8 7 6 6 5 5 5 5 6 5 5 5 6 5 5 4 4 3 4 5 6 6 4 2 1 1 0 1 3 6 7 7 8 9 9 9 9 10
12 13 13 11 9 8 7 6 5 4 4 4 4 4 5 6 7 6 6 5 4 4 3 3 4 5 4 2 0 0 0 0 0 2 5 9 10 10 11 11 10 10 10

GEFSMW_con_probscp_360.txt.gz
Probability
6 5 5 6 8 11 13 15 18 20 21 20 18 18 18 17 17 15 15 14 12 12 12 11 11 13 13 11 8 8 9 10 9 5 4 5 5 5 7 8 7 6 8
8 9 9 9 10 13 15 17 20 22 20 19 20 20 19 19 17 16 16 15 14 13 13 12 13 14 13 11 9 9 10 10 9 5 3 5 6 6 7 8 7 6 7
11 14 16 14 13 15 17 20 22 23 21 19 20 21 21 20 19 18 18 18 18 17 15 15 15 15 14 13 12 12 12 12 10 7 6 7 7 8 9 9 8 7 8
14 18 20 18 16 16 18 22 25 25 23 22 21 23 23 21 19 18 19 20 21 19 16 15 15 16 15 14 13 12 13 14 14 12 11 11 11 11 11 10 8 8 9
18 20 21 20 18 17 19 24 29 28 26 25 25 24 24 22 19 19 20 21 22 20 15 14 15 16 16 14 13 13 14 15 15 15 16 16 14 14 13 10 7 7 8
21 22 22 22 20 18 20 26 32 32 30 28 27 26 25 24 23 22 20 19 19 20 17 16 18 18 18 17 17 17 17 16 15 16 18 17 16 14 13 11 8 8 8
21 21 21 22 20 18 20 28 34 34 32 30 29 27 25 25 25 24 20 16 16 19 22 23 23 23 22 22 22 22 21 19 17 17 19 19 16 14 13 12 10 9 8
19 19 19 20 19 18 20 26 31 33 32 31 30 27 25 25 25 24 20 18 18 21 27 30 30 28 26 25 25 25 24 22 18 17 19 20 19 16 14 14 13 9 7
16 18 19 19 18 17 18 21 27 32 32 32 30 28 28 28 27 26 24 24 25 27 31 34 34 30 28 28 27 25 23 22 18 17 18 20 21 20 18 17 15 11 8
15 16 16 16 16 15 15 18 24 30 31 31 30 28 30 32 30 28 28 30 31 31 32 35 35 33 31 31 29 26 24 22 19 18 19 20 20 21 20 18 17 14 12
17 16 15 15 15 13 14 18 24 28 30 31 31 31 31 32 31 29 30 33 34 32 32 33 35 35 34 32 30 27 24 22 21 19 19 20 20 19 19 19 18 16 15
23 21 18 18 19 18 18 21 23 27 30 34 35 34 31 30 30 30 30 32 33 33 33 33 34 34 33 31 26 23 21 21 21 21 21 21 19 18 18 18 18 16 14
28 26 25 25 25 25 25 25 26 27 31 34 34 32 30 29 30 30 30 30 31 33 34 35 34 32 30 27 23 20 18 18 20 22 22 20 18 16 16 17 17 15 14
31 30 29 29 28 28 28 28 27 28 29 30 30 30 30 30 31 32 31 30 29 30 33 35 35 33 29 25 23 21 19 17 18 20 19 17 14 13 13 14 15 15 14
33 33 32 29 28 27 26 25 25 27 28 28 28 30 31 32 33 33 32 30 28 28 31 33 34 32 26 22 20 20 18 16 15 16 15 13 10 9 9 10 12 13 13
34 35 35 33 29 26 24 22 23 25 26 27 28 29 30 31 32 31 30 29 28 29 30 31 30 27 20 14 11 11 13 12 11 11 12 10 7 6 6 6 8 9 9
37 36 37 36 31 25 23 22 22 23 25 26 26 26 26 27 27 27 27 27 29 29 28 27 25 22 15 7 3 3 6 8 9 9 10 8 6 6 6 6 8 8 7
36 35 35 35 29 23 21 22 22 22 22 22 23 23 23 23 24 24 25 26 26 25 23 22 22 20 14 6 1 1 3 6 9 9 8 9 8 6 6 8 9 11 11
32 33 34 33 28 22 20 21 21 19 18 17 18 20 21 21 21 23 24 25 23 20 18 18 20 20 15 7 2 2 4 8 10 9 7 8 8 5 5 8 11 12 13
33 34 35 33 29 25 22 22 21 20 18 16 16 18 18 17 17 19 21 21 19 16 14 16 20 21 17 9 4 3 6 9 10 9 7 5 4 3 4 6 9 10 11
32 34 35 33 30 27 25 24 23 22 19 16 15 14 13 11 11 14 16 17 15 13 13 17 21 21 15 8 4 3 5 6 7 7 7 5 3 1 2 2 4 6 6
29 32 34 32 29 26 25 26 26 23 19 16 13 11 9 8 8 10 12 13 13 12 13 16 17 16 12 7 3 1 2 3 4 4 5 5 3 1 0 0 1 2 3
31 31 31 30 28 25 24 24 25 21 17 15 13 10 8 7 7 9 9 10 10 10 10 10 9 9 9 6 2 0 0 1 1 2 2 2 1 0 0 0 1 2 3
36 33 30 28 27 25 23 21 21 19 15 15 14 11 8 6 8 9 7 6 7 7 7 5 5 6 7 7 3 1 1 0 1 1 2 2 2 2 2 2 3 5 6
38 35 31 28 25 24 21 18 17 15 14 14 14 11 8 7 8 8 6 4 4 4 3 3 3 4 5 5 3 2 1 1 1 2 2 4 6 6 4 4 5 7 9
39 38 33 27 24 22 20 17 14 12 13 14 13 10 8 7 7 6 4 2 2 1 1 1 2 2 2 2 1 1 1 1 1 2 2 4 7 8 5 4 5 7 8

GEFSMW_con_probscp_366.txt.gz
Probability
3 3 5 5 4 3 4 6 7 7 7 9 10 10 10 10 9 5 3 4 5 5 4 3 3 3 3 3 3 3 2 1 0 0 1 1 2 3 3 3 3 3 3
5 5 5 4 4 5 7 8 9 8 8 9 10 11 11 9 6 4 3 3 4 4 3 3 3 3 3 3 3 3 3 1 0 1 2 2 3 3 3 3 3 3 3
9 8 7 7 7 8 11 12 11 10 10 10 10 11 11 8 5 3 3 3 3 3 3 3 3 3 3 3 3 3 3 2 1 1 2 3 3 4 3 3 3 3 3
12 11 11 10 9 10 13 13 12 11 11 11 10 10 10 8 5 4 4 4 4 3 3 3 3 3 3 3 3 3 3 3 2 2 2 2 3 4 3 3 3 3 3
14 14 13 11 9 9 11 11 11 11 10 9 8 8 8 6 5 4 4 4 4 4 4 4 4 4 3 3 3 3 3 3 4 4 4 3 4 3 3 3 3 3 3
15 15 13 8 6 7 8 9 9 9 8 6 5 6 6 5 4 4 3 3 4 5 5 6 6 5 5 4 4 3 3 4 5 6 6 6 5 5 4 3 3 2 1
16 15 12 8 6 6 7 9 10 9 8 6 5 6 6 6 6 5 4 4 5 6 7 7 6 7 8 8 6 5 4 6 8 8 7 7 7 7 5 3 2 1 0
17 14 11 8 6 5 7 10 12 11 9 8 9 10 8 7 7 6 6 6 7 7 7 7 6 7 10 11 10 8 7 8 9 8 8 8 8 7 5 3 2 1 0
17 14 11 9 6 5 7 11 13 13 11 11 12 12 10 9 8 7 7 8 8 8 8 8 7 8 11 12 12 10 9 9 9 8 7 6 6 4 3 2 2 1 0
16 14 13 11 7 5 7 11 13 13 12 12 12 12 11 10 9 9 9 9 9 9 10 10 10 11 13 12 11 9 8 7 7 7 5 4 3 2 1 1 1 1 0
16 14 13 11 8 7 9 13 14 13 12 11 11 12 11 10 10 10 11 11 11 11 12 13 13 13 13 12 10 8 7 7 6 6 5 4 2 1 1 0 1 1 1
15 14 12 10 9 9 12 16 17 15 11 10 12 14 13 12 12 12 12 13 13 12 12 13 14 13 12 11 11 9 8 7 6 6 6 4 2 1 0 0 1 3 3
13 13 12 11 11 12 16 19 19 17 15 16 18 19 18 16 15 15 14 13 13 12 12 13 14 13 12 12 11 10 9 8 7 6 6 5 3 1 1 1 3 5 5
14 14 14 13 12 14 17 18 18 18 18 20 22 22 20 18 16 16 14 13 14 14 14 14 13 13 13 12 11 9 9 7 5 5 5 4 4 3 2 2 4 5 5
15 15 15 14 13 13 15 16 16 17 18 18 19 20 18 15 15 15 14 14 15 15 15 14 13 13 13 11 10 9 7 4 2 2 2 2 2 2 2 2 3 3 3
15 15 16 16 15 13 12 13 13 14 15 16 15 15 14 12 12 13 13 13 14 14 14 14 14 14 12 9 7 6 4 2 0 0 0 0 1 1 1 1 1 1 2
16 16 17 17 14 12 11 9 10 12 14 15 14 13 11 11 11 12 12 11 11 11 11 11 11 11 9 6 5 3 2 0 0 0 0 0 1 1 0 0 0 0 1
18 17 17 15 13 12 11 10 10 12 13 13 12 10 10 11 10 9 8 7 7 7 6 5 6 7 6 4 4 2 1 1 0 0 0 0 0 0 0 0 0 0 0
17 15 13 12 12 13 13 12 12 13 13 11 9 8 8 8 7 6 3 2 3 3 2 2 4 5 4 3 2 2 2 2 1 1 1 0 0 0 0 0 0 0 0
15 13 10 9 10 11 12 11 10 9 10 8 6 6 5 5 4 3 1 0 1 1 2 3 4 4 4 3 2 1 1 2 2 2 2 1 1 0 0 0 0 0 0
13 12 9 8 7 8 8 8 6 5 5 5 5 4 4 3 3 2 1 0 0 1 2 3 3 3 3 3 2 1 0 1 1 1 2 2 1 0 0 0 0 0 0
13 11 10 8 6 5 4 5 4 3 3 4 4 3 3 3 3 1 0 0 0 0 1 1 2 2 2 2 2 1 0 0 0 0 1 1 1 0 0 0 0 0 0
11 10 9 8 5 3 2 3 4 3 3 4 4 4 3 3 3 1 0 0 0 0 0 0 1 1 1 1 1 0 0 0 0 0 0 0 0 0 0 0 0 0 0
11 10 9 8 6 2 2 3 4 4 3 3 4 4 3 2 2 1 0 0 0 0 0 0 0 0 0 0 0 0 0 0 0 0 0 0 0 0 0 0 0 0 0
13 11 9 8 5 2 2 3 4 4 4 3 3 2 1 1 1 1 0 0 0 0 0 0 0 0 0 0 0 0 0 0 0 0 0 0 0 0 0 0 0 0 0
15 13 11 6 3 1 2 3 4 4 4 3 2 1 0 0 0 0 0 0 0 0 0 0 0 0 0 0 0 0 0 0 0 0 0 0 0 0 0 0 0 0 0

GEFSMW_con_probscp_372.txt.gz
Probability
1 2 2 2 2 3 3 3 3 3 3 3 3 3 3 2 1 1 1 1 0 1 2 3 3 3 3 3 2 3 3 3 3 3 1 0 0 0 0 1 2 3 3
2 2 2 2 2 3 3 3 3 3 3 4 4 4 3 2 1 1 0 0 0 1 2 3 3 3 3 3 3 3 3 3 3 3 2 1 0 0 1 2 3 3 3
4 3 2 2 2 2 2 2 2 2 3 4 5 4 3 1 1 0 0 0 1 1 3 3 3 3 3 3 3 3 4 4 3 3 3 2 1 1 1 2 3 3 4
4 2 1 1 1 1 1 1 1 1 2 3 4 4 3 1 0 0 1 1 2 3 3 3 3 2 2 2 2 3 4 4 4 3 3 2 2 2 1 2 3 4 4
3 2 1 1 1 1 1 1 0 0 1 2 3 3 3 1 0 1 2 2 2 2 2 2 1 1 1 1 1 1 3 4 4 4 4 2 2 3 3 3 3 3 4
3 2 2 2 1 2 3 3 2 1 2 3 4 4 4 3 1 1 2 2 1 1 1 1 1 1 0 0 0 0 1 3 3 4 4 3 3 3 5 5 4 4 4
2 2 3 3 2 3 5 6 6 5 4 5 5 5 5 4 3 2 1 1 0 0 1 1 3 3 2 1 0 0 1 2 3 3 4 4 4 4 4 6 6 5 4
1 1 3 4 4 5 6 7 9 8 6 5 5 4 3 3 3 2 1 0 1 1 3 4 5 6 5 4 2 2 3 4 5 5 5 6 6 5 5 6 7 6 5
0 1 3 5 5 6 6 6 7 7 5 4 4 3 2 2 2 1 0 0 1 3 5 5 5 6 7 7 6 5 7 8 7 6 6 7 7 6 6 6 7 6 5
1 1 3 4 4 5 5 4 4 4 4 3 3 3 3 2 2 2 2 2 2 4 5 4 3 5 7 8 8 8 9 10 9 7 6 6 6 6 6 6 6 5 5
2 2 2 3 3 4 4 5 4 4 5 4 4 4 4 4 4 5 5 4 3 4 3 3 2 2 5 7 9 9 10 10 9 7 6 6 6 6 5 4 4 5 6
2 1 1 1 2 3 5 7 6 6 7 7 6 7 7 7 7 7 7 5 2 1 2 3 2 2 5 8 9 9 10 9 8 7 6 6 6 5 4 4 5 6 6
1 0 0 0 1 2 5 7 7 7 9 10 11 11 12 11 9 7 6 4 2 1 3 5 5 5 7 9 10 10 11 10 8 7 6 6 6 5 5 5 5 5 5
1 1 1 1 1 2 4 5 6 8 10 11 13 14 13 11 8 5 4 3 3 4 6 7 7 8 9 9 10 11 11 10 8 7 6 5 5 5 4 3 3 2 3
4 4 3 2 2 3 4 5 6 7 10 12 13 12 9 7 5 4 3 4 5 6 7 8 9 9 9 9 8 9 9 8 7 7 6 4 4 3 2 1 1 0 1
6 6 5 4 3 4 4 6 6 7 9 10 9 7 5 3 3 2 2 3 4 5 6 8 9 9 8 6 4 5 6 7 6 6 5 3 2 2 1 0 0 0 0
6 7 6 4 4 4 6 8 9 8 7 6 5 4 2 1 1 1 1 1 2 3 3 5 6 6 4 2 1 2 4 5 6 6 5 2 1 1 2 1 0 0 0
4 5 6 5 5 6 9 11 11 8 5 3 3 2 1 0 0 0 0 0 0 1 1 1 2 2 1 0 0 0 2 3 4 4 4 1 0 1 2 2 1 1 1
2 4 5 6 6 7 9 11 10 6 4 3 3 2 1 0 0 0 0 0 0 0 0 0 0 0 0 0 0 0 0 1 1 1 1 0 0 0 1 1 1 2 2
3 4 5 5 5 6 8 8 6 3 2 2 1 1 0 0 0 0 0 0 0 0 0 0 0 0 0 0 0 0 0 1 0 0 0 0 0 0 0 0 1 1 2
5 4 4 4 4 5 5 4 2 1 1 1 0 0 0 0 0 0 0 0 0 0 0 0 0 0 0 0 0 0 0 0 0 0 0 0 0 0 0 0 0 0 1
4 4 3 3 3 3 2 1 0 0 0 0 0 0 0 0 0 0 0 0 0 0 0 0 0 0 0 0 0 0 0 0 0 0 0 0 0 0 0 0 0 0 0
4 4 4 4 2 1 1 0 0 0 0 0 0 0 0 0 0 0 0 0 0 0 0 0 0 0 0 0 0 0 0 0 0 0 0 0 0 0 0 0 0 0 0
5 5 5 3 1 0 0 0 0 0 0 0 0 0 0 0 0 0 0 0 0 0 0 0 0 0 0 0 0 0 0 0 0 0 0 0 0 0 0 0 0 0 0
4 4 4 2 1 0 0 0 0 0 1 1 0 0 0 0 0 0 0 0 0 0 0 0 0 0 0 0 0 0 0 0 0 0 0 0 0 0 0 0 0 0 0
3 3 3 2 0 0 0 0 0 1 2 2 1 0 0 0 0 0 0 0 0 0 0 0 0 0 0 0 0 0 0 0 0 0 0 0 0 0 0 0 0 0 0